Wind_Speed
7 5 5 5 4 4 3 3 4 5 5 5 5 6 6 6 7 8 8 8 8 8 8 8 8 8 8 8 8 9 10 10 10 10 10 9 9 8 7 7 7 7 8 8
8 7 6 6 5 4 3 3 5 6 5 6 6 6 7 7 8 8 8 8 8 8 9 9 9 9 8 8 9 9 10 11 11 11 11 10 10 8 8 9 9 9 9 9
11 10 8 6 6 5 5 5 6 6 6 6 7 7 7 8 7 8 8 8 9 9 9 9 9 9 9 9 10 11 11 11 11 12 12 11 11 9 9 9 10 10 10 10
12 12 10 8 7 6 7 7 7 6 6 7 7 7 8 8 9 9 9 9 9 9 9 9 9 9 9 10 11 11 11 11 12 12 12 12 11 10 10 10 10 10 10 10
13 13 12 10 9 8 8 8 8 7 7 7 7 6 9 9 10 10 10 10 10 9 9 9 9 9 10 11 11 11 12 12 12 12 13 13 12 11 12 11 11 10 10 10
15 14 13 11 11 10 9 9 9 8 6 7 8 7 9 11 11 11 11 11 10 10 10 10 10 10 11 11 12 12 13 13 13 13 13 13 13 12 12 12 11 12 11 11
16 15 14 13 12 11 10 8 8 8 7 9 10 9 10 11 12 12 11 11 11 11 11 11 11 11 12 12 13 13 13 14 14 14 14 14 14 13 13 12 12 13 13 13
16 15 15 14 13 12 10 8 8 8 9 10 12 11 12 12 12 12 11 11 11 11 12 12 11 12 13 13 14 14 14 14 14 15 15 15 15 14 13 13 13 14 14 14
17 16 15 14 13 12 11 10 9 10 10 11 12 13 13 12 12 11 11 11 12 12 12 12 13 13 13 14 14 15 15 15 15 15 15 16 15 14 14 14 14 14 15 15
17 16 16 14 13 13 12 11 10 10 11 11 13 13 13 12 12 12 12 12 13 13 12 13 13 13 13 14 14 15 15 16 16 16 16 16 15 15 15 14 15 15 15 15
17 16 16 16 15 15 15 13 13 12 12 11 11 12 13 13 12 12 13 13 13 13 13 13 13 14 14 14 15 15 16 17 17 17 17 17 16 15 15 15 16 16 16 16
18 18 18 17 17 16 16 15 14 14 14 13 12 13 13 13 13 12 13 13 13 14 14 14 14 15 15 15 16 16 17 17 17 17 17 17 17 16 16 17 17 17 16 17
19 18 17 16 18 18 18 17 16 15 15 15 13 15 15 14 14 13 13 13 13 14 14 15 16 16 17 17 17 18 18 18 18 18 18 18 18 18 18 18 18 18 18 18
20 19 18 17 17 18 18 18 17 17 15 15 15 15 16 16 16 15 14 14 14 15 16 16 17 17 18 18 18 18 18 19 19 19 18 19 19 19 19 19 19 19 19 19
20 20 20 20 20 19 20 20 19 18 17 16 16 16 15 16 16 16 16 16 16 16 17 18 18 18 18 19 19 19 19 19 19 19 19 19 20 20 20 20 20 20 20 20
22 22 21 21 20 20 20 20 19 18 17 17 17 16 16 16 17 17 17 17 17 17 18 18 18 19 19 19 19 19 19 20 20 20 20 20 20 20 20 20 21 21 21 21
22 22 21 21 21 21 21 20 19 18 17 17 17 17 18 16 17 17 17 17 18 18 19 19 19 19 19 20 20 20 20 20 21 21 20 21 21 22 22 22 22 22 22 22
24 23 22 21 21 22 21 19 19 19 19 18 18 18 17 17 18 17 17 18 18 18 19 19 20 20 20 20 20 20 21 21 21 21 22 22 23 23 23 22 23 23 23 24
25 25 24 22 22 22 22 20 19 19 19 18 18 18 18 17 18 18 17 17 18 18 19 20 20 20 21 22 21 21 22 22 21 22 22 22 23 23 23 23 23 24 24 24
27 26 26 25 24 23 22 21 19 19 21 19 19 19 19 18 18 18 18 18 19 19 20 21 21 21 21 22 21 21 22 22 22 22 23 23 23 24 24 24 24 24 24 25
28 27 27 26 25 24 23 22 20 20 21 21 20 20 20 20 20 20 19 19 20 20 21 21 22 22 22 22 22 23 23 23 23 23 23 24 24 24 25 25 25 24 25 25
29 28 28 27 26 26 25 24 22 22 22 22 21 21 21 22 22 21 21 21 21 22 22 22 23 23 23 23 24 24 24 24 24 25 24 24 25 25 25 25 25 25 25 25
30 29 28 28 28 28 27 26 24 23 22 22 22 22 22 22 22 22 22 22 22 23 24 24 24 24 25 25 25 24 24 25 25 25 25 25 25 25 25 25 26 26 25 25
31 30 30 29 29 29 28 26 25 24 24 23 23 23 23 23 23 24 24 24 24 24 25 25 25 25 24 24 24 25 25 24 25 25 25 25 25 25 25 26 26 26 26 25
31 31 31 30 30 29 29 28 27 26 25 25 25 25 25 24 25 25 25 26 26 26 27 27 26 26 25 26 26 26 26 25 25 24 24 24 24 25 25 26 26 25 25 26
32 31 31 31 30 30 29 29 29 28 27 27 27 26 26 26 26 26 26 27 27 27 28 28 27 27 26 26 27 27 26 25 24 24 24 25 25 25 25 25 25 25 25 26
Wind_Direction
195 203 214 221 222 232 259 304 317 325 328 337 341 334 336 336 333 338 337 333 330 327 326 325 327 330 332 336 340 340 335 336 338 338 336 335 331 328 325 318 311 313 313 308
202 216 218 226 244 259 272 300 310 317 328 331 332 326 328 331 332 334 336 333 328 324 319 320 323 324 327 328 333 332 334 336 338 337 337 334 331 327 325 325 318 310 311 309
204 213 223 236 255 264 278 286 295 307 320 327 330 328 325 327 330 330 331 331 327 325 320 317 319 319 325 328 329 326 328 330 331 332 334 332 329 321 317 317 316 315 310 309
212 218 227 236 248 252 270 281 292 303 316 322 329 323 322 326 325 326 325 327 329 328 324 323 318 315 317 323 325 325 325 327 327 326 328 328 327 323 320 317 314 314 313 311
219 222 229 237 243 249 257 277 288 296 307 315 322 320 312 319 319 321 322 323 325 327 324 323 321 316 317 320 321 323 325 325 327 325 323 325 323 320 321 317 314 313 312 311
222 229 233 240 246 252 263 280 295 302 306 300 309 315 309 310 312 314 316 318 318 319 319 319 320 319 320 321 319 318 320 322 323 324 322 321 321 320 318 316 312 311 308 306
229 235 238 241 249 256 266 278 288 294 290 288 299 305 303 304 305 307 310 311 313 314 314 316 317 316 316 316 316 318 319 320 319 323 323 321 319 319 316 314 313 310 306 304
231 239 243 245 246 257 264 261 262 267 271 283 294 296 300 302 303 306 305 308 311 313 313 313 311 312 313 313 311 313 317 319 319 320 323 322 320 317 315 315 315 313 310 305
228 237 245 247 247 252 259 262 261 266 272 279 286 292 295 299 300 304 305 306 308 306 308 307 307 308 309 311 311 312 312 314 317 319 321 321 320 317 314 313 313 313 311 308
228 237 244 250 250 252 257 264 266 263 269 275 287 295 295 298 299 299 302 304 304 307 308 307 306 306 307 308 309 311 311 310 311 315 316 317 315 316 314 312 310 309 307 306
228 235 245 250 252 256 265 267 266 265 265 270 280 286 287 293 297 299 299 301 301 304 305 305 303 304 305 305 306 308 308 308 309 311 312 312 312 311 310 309 310 308 304 304
231 234 242 250 253 253 259 262 265 269 272 272 274 282 285 288 295 298 299 300 301 300 302 301 302 304 303 303 305 306 306 306 307 308 308 308 308 307 305 307 308 308 305 302
233 237 244 252 257 258 260 262 263 266 272 272 273 278 282 285 290 294 296 298 299 302 302 301 300 302 302 302 304 305 304 304 304 305 306 307 306 305 305 306 306 304 303 302
235 239 240 244 252 260 264 264 263 264 267 269 269 273 280 284 288 290 292 296 298 300 301 301 300 300 301 302 303 302 303 303 304 304 306 306 305 305 305 305 305 305 303 303
236 242 244 247 251 256 261 263 263 260 260 261 267 273 279 282 285 287 289 293 296 298 298 298 299 299 298 300 301 300 301 303 304 304 304 305 304 305 306 307 307 307 305 302
238 242 246 251 255 258 261 262 261 259 261 265 268 272 274 279 281 283 286 289 293 295 297 298 298 297 297 299 299 299 299 301 302 301 301 303 304 306 306 306 306 308 307 307
244 246 248 253 256 258 259 259 257 258 261 264 268 272 274 275 279 282 285 285 289 292 294 297 296 295 296 298 298 298 299 300 300 300 302 303 304 304 304 303 303 304 306 305
246 248 251 252 255 255 254 254 255 257 259 261 265 270 272 272 276 280 282 283 285 286 290 294 297 296 298 299 299 299 301 302 303 303 304 305 305 304 303 302 300 300 303 305
246 248 250 252 255 257 255 250 253 257 260 262 266 271 274 275 276 277 278 280 282 284 288 293 297 297 297 298 298 299 300 302 304 304 305 306 306 304 302 300 300 300 301 303
246 247 249 251 251 253 256 257 255 258 262 263 266 270 273 274 276 279 279 280 283 285 289 293 295 297 298 298 298 298 300 301 303 304 304 305 304 303 302 301 300 300 300 302
245 247 248 250 252 253 254 257 257 257 261 264 266 268 271 272 271 273 276 279 283 286 289 292 293 295 296 298 298 298 299 300 302 302 304 304 304 302 301 300 300 300 300 301
244 245 247 248 249 251 254 255 256 258 261 266 267 267 271 273 274 273 276 280 284 286 289 291 294 295 296 296 296 297 298 299 300 300 302 304 303 303 302 301 301 301 301 301
242 243 246 247 248 250 253 254 255 257 260 263 267 269 272 274 273 274 275 279 282 285 287 290 292 294 295 295 297 299 300 300 300 300 300 302 302 302 302 302 303 302 302 303
243 244 245 246 247 249 251 253 254 256 258 262 265 267 271 273 275 276 275 277 279 282 286 290 293 295 297 298 298 300 300 300 301 301 301 301 301 301 302 301 300 301 302 303
245 244 245 246 247 247 250 254 256 258 259 261 264 266 268 271 273 276 277 277 278 280 285 289 291 292 294 297 298 299 300 300 300 301 303 302 302 301 302 301 301 302 304 305
244 244 244 246 246 247 249 251 255 258 261 262 264 266 268 270 272 274 276 277 278 282 284 287 288 289 291 295 296 298 298 299 298 298 300 301 301 301 301 301 301 302 303 304
Height
5919 5922 5923 5923 5924 5924 5924 5925 5924 5923 5921 5920 5919 5918 5916 5914 5912 5911 5909 5908 5906 5905 5903 5901 5899 5898 5896 5895 5893 5891 5890 5888 5886 5884 5882 5880 5878 5876 5875 5874 5872 5871 5870 5869
5919 5921 5921 5922 5922 5923 5923 5923 5923 5922 5920 5919 5918 5917 5915 5914 5912 5910 5909 5907 5905 5904 5902 5900 5899 5897 5895 5894 5892 5891 5889 5887 5885 5883 5881 5879 5877 5875 5873 5872 5871 5870 5868 5867
5918 5920 5920 5921 5921 5922 5922 5922 5922 5921 5919 5918 5918 5917 5915 5913 5912 5910 5909 5907 5905 5903 5901 5899 5898 5896 5894 5893 5891 5889 5888 5886 5884 5882 5879 5877 5875 5873 5872 5870 5869 5868 5866 5865
5915 5917 5918 5919 5920 5920 5921 5920 5920 5919 5919 5918 5918 5918 5915 5912 5911 5909 5908 5906 5904 5902 5900 5898 5896 5895 5893 5892 5890 5888 5886 5884 5882 5880 5878 5876 5874 5872 5870 5869 5867 5866 5864 5863
5913 5915 5916 5917 5918 5918 5919 5918 5918 5918 5918 5918 5917 5916 5915 5912 5910 5908 5907 5905 5903 5901 5899 5897 5896 5894 5892 5890 5889 5887 5885 5883 5881 5878 5876 5874 5872 5870 5868 5866 5865 5863 5862 5860
5911 5913 5914 5915 5916 5916 5916 5917 5916 5916 5917 5917 5916 5915 5914 5911 5909 5907 5905 5903 5901 5900 5898 5896 5895 5893 5891 5889 5887 5885 5883 5881 5879 5877 5874 5872 5870 5868 5866 5864 5863 5861 5859 5858
5909 5911 5911 5913 5913 5914 5915 5916 5918 5917 5917 5916 5914 5912 5912 5908 5907 5905 5903 5901 5900 5898 5896 5895 5893 5891 5889 5887 5885 5883 5881 5879 5877 5874 5872 5870 5868 5866 5864 5862 5860 5858 5857 5855
5908 5910 5909 5910 5911 5912 5912 5914 5916 5917 5916 5915 5911 5910 5909 5906 5904 5902 5901 5899 5898 5896 5894 5893 5891 5889 5887 5885 5883 5881 5879 5876 5874 5872 5870 5868 5865 5863 5861 5859 5858 5856 5854 5852
5905 5907 5906 5906 5907 5909 5909 5910 5911 5912 5911 5911 5910 5907 5905 5903 5902 5900 5898 5897 5895 5894 5892 5890 5889 5887 5885 5882 5880 5878 5876 5874 5872 5869 5867 5865 5863 5861 5859 5857 5855 5853 5851 5849
5900 5902 5903 5903 5904 5905 5906 5907 5908 5909 5908 5909 5907 5905 5904 5900 5899 5897 5896 5895 5893 5891 5890 5888 5886 5884 5882 5880 5878 5876 5873 5871 5869 5867 5864 5862 5860 5858 5856 5854 5852 5850 5848 5846
5896 5899 5900 5900 5901 5902 5902 5903 5903 5904 5904 5905 5905 5905 5900 5898 5896 5895 5894 5892 5890 5889 5887 5885 5883 5882 5880 5878 5875 5873 5871 5868 5866 5863 5861 5859 5857 5854 5852 5850 5848 5846 5844 5842
5892 5894 5896 5897 5897 5897 5898 5899 5900 5901 5900 5899 5900 5902 5896 5895 5893 5892 5891 5889 5888 5886 5884 5882 5881 5879 5877 5875 5872 5870 5868 5865 5863 5860 5858 5855 5853 5851 5849 5847 5844 5842 5840 5838
5887 5890 5892 5893 5894 5894 5894 5894 5895 5896 5896 5896 5897 5898 5892 5891 5890 5888 5887 5886 5884 5883 5881 5879 5877 5876 5873 5871 5869 5866 5864 5862 5859 5856 5854 5852 5850 5847 5845 5843 5840 5838 5836 5833
5882 5885 5888 5891 5890 5890 5889 5889 5890 5891 5892 5892 5892 5891 5889 5887 5886 5885 5883 5882 5881 5879 5878 5876 5874 5872 5870 5868 5865 5863 5860 5858 5855 5853 5850 5848 5846 5843 5841 5838 5836 5833 5831 5829
5877 5879 5881 5882 5883 5884 5884 5884 5885 5885 5886 5887 5887 5886 5885 5883 5882 5881 5879 5878 5877 5876 5874 5872 5870 5868 5866 5864 5861 5859 5856 5854 5851 5849 5846 5844 5842 5839 5836 5834 5831 5829 5827 5824
5871 5873 5875 5876 5877 5878 5878 5879 5879 5880 5881 5881 5881 5881 5880 5878 5877 5876 5875 5874 5873 5871 5869 5867 5866 5864 5862 5860 5857 5855 5852 5850 5847 5845 5842 5840 5837 5834 5832 5829 5827 5824 5822 5820
5866 5868 5870 5871 5871 5872 5873 5874 5874 5875 5875 5876 5876 5876 5874 5874 5873 5872 5871 5870 5868 5867 5865 5863 5861 5859 5857 5855 5853 5850 5848 5845 5842 5840 5838 5835 5832 5829 5827 5824 5822 5820 5817 5815
5860 5862 5864 5866 5866 5867 5870 5868 5869 5869 5870 5870 5870 5870 5869 5869 5868 5867 5866 5865 5863 5862 5860 5859 5857 5855 5852 5850 5848 5845 5843 5840 5838 5835 5832 5830 5827 5824 5821 5819 5817 5814 5812 5809
5854 5856 5858 5859 5860 5861 5862 5862 5863 5864 5864 5864 5865 5864 5864 5863 5863 5861 5861 5860 5858 5857 5856 5854 5852 5850 5847 5845 5843 5840 5838 5835 5833 5830 5827 5825 5822 5819 5816 5813 5811 5809 5806 5804
5847 5849 5851 5852 5854 5855 5857 5856 5857 5859 5858 5859 5859 5859 5858 5858 5858 5857 5856 5854 5853 5852 5851 5849 5847 5845 5842 5840 5838 5835 5833 5830 5828 5825 5822 5819 5816 5813 5811 5808 5805 5803 5800 5798
5839 5841 5843 5845 5846 5848 5849 5850 5852 5854 5854 5853 5853 5853 5852 5852 5852 5851 5850 5849 5848 5847 5845 5843 5841 5839 5837 5834 5832 5830 5827 5825 5822 5819 5816 5813 5811 5808 5805 5802 5799 5797 5794 5792
5832 5834 5836 5838 5840 5843 5841 5843 5845 5846 5846 5846 5846 5847 5847 5846 5845 5844 5844 5843 5842 5841 5839 5837 5835 5833 5831 5829 5827 5824 5822 5819 5816 5813 5811 5808 5805 5802 5799 5796 5793 5790 5788 5785
5823 5826 5828 5831 5834 5833 5834 5835 5837 5838 5839 5839 5840 5840 5840 5840 5839 5838 5838 5837 5836 5834 5833 5831 5829 5827 5825 5823 5820 5818 5815 5812 5810 5807 5804 5801 5798 5796 5793 5790 5787 5784 5781 5778
5815 5817 5820 5822 5823 5825 5826 5827 5829 5830 5832 5832 5833 5833 5833 5833 5832 5832 5831 5830 5829 5827 5826 5824 5822 5820 5818 5816 5813 5811 5808 5805 5803 5800 5797 5794 5792 5789 5786 5783 5780 5777 5774 5771
5806 5809 5811 5813 5815 5817 5818 5820 5821 5823 5824 5825 5826 5826 5826 5826 5825 5824 5823 5822 5821 5820 5819 5817 5815 5813 5811 5809 5807 5804 5801 5798 5796 5794 5791 5788 5785 5783 5780 5777 5774 5771 5768 5764
5797 5800 5803 5805 5806 5808 5810 5812 5813 5815 5816 5817 5817 5818 5818 5817 5817 5817 5816 5814 5813 5812 5811 5809 5808 5806 5804 5801 5799 5797 5794 5792 5789 5787 5785 5782 5779 5776 5773 5770 5767 5764 5761 5758